TimeHST,TemperatureF,Dew PointF,Humidity,Sea Level PressureIn,VisibilityMPH,Wind Direction,Wind SpeedMPH,Gust SpeedMPH,PrecipitationIn,Events,Conditions,WindDirDegrees,DateUTC
12:09 AM,64.4,64.4,100,30.07,0.2,North,5.8,-,N/A,Fog,Fog,350,2013-03-11 10:09:00
12:15 AM,64.4,64.4,100,30.07,0.8,North,4.6,-,N/A,,Overcast,350,2013-03-11 10:15:00
12:17 AM,64.4,64.4,100,30.07,1.2,North,4.6,-,N/A,,Overcast,350,2013-03-11 10:17:00
12:19 AM,64.4,64.4,100,30.07,3.0,North,4.6,-,N/A,,Overcast,350,2013-03-11 10:19:00
12:31 AM,64.4,64.4,100,30.07,10.0,North,4.6,-,N/A,,Overcast,360,2013-03-11 10:31:00
12:56 AM,63.9,63.9,100,30.01,10.0,East,5.8,-,N/A,,Scattered Clouds,80,2013-03-11 10:56:00
1:56 AM,63.0,63.0,100,30.00,10.0,Calm,Calm,-,N/A,,Partly Cloudy,0,2013-03-11 11:56:00
2:56 AM,61.9,59.0,90,29.98,10.0,Calm,Calm,-,0.01,,Clear,0,2013-03-11 12:56:00
3:56 AM,61.9,57.9,87,29.99,10.0,NE,3.5,-,N/A,,Clear,40,2013-03-11 13:56:00
4:56 AM,61.0,57.9,90,29.99,10.0,ENE,4.6,-,N/A,,Clear,70,2013-03-11 14:56:00
5:56 AM,63.0,57.9,84,30.00,10.0,ENE,4.6,-,N/A,,Overcast,70,2013-03-11 15:56:00
6:56 AM,63.0,59.9,90,30.03,10.0,ENE,5.8,-,N/A,,Mostly Cloudy,70,2013-03-11 16:56:00
7:56 AM,70.0,63.0,78,30.04,10.0,East,3.5,-,N/A,,Mostly Cloudy,80,2013-03-11 17:56:00
8:56 AM,72.9,61.9,68,30.05,10.0,Variable,3.5,-,N/A,,Clear,0,2013-03-11 18:56:00
9:56 AM,72.9,61.9,68,30.07,10.0,SW,4.6,-,N/A,,Mostly Cloudy,230,2013-03-11 19:56:00
10:43 AM,75.2,64.4,69,30.11,10.0,Variable,6.9,-,N/A,,Mostly Cloudy,0,2013-03-11 20:43:00
10:56 AM,75.2,62.6,65,30.12,10.0,SSW,4.6,-,N/A,,Mostly Cloudy,200,2013-03-11 20:56:00
11:56 AM,74.8,63.9,69,30.05,10.0,NW,6.9,-,N/A,,Mostly Cloudy,310,2013-03-11 21:56:00
12:19 PM,75.2,64.4,69,30.09,10.0,Variable,5.8,-,N/A,,Scattered Clouds,0,2013-03-11 22:19:00
12:56 PM,77.0,61.9,59,30.02,10.0,SW,8.1,-,N/A,,Mostly Cloudy,220,2013-03-11 22:56:00
1:38 PM,78.8,62.6,57,30.06,10.0,West,9.2,-,N/A,,Scattered Clouds,270,2013-03-11 23:38:00
1:56 PM,77.9,63.0,60,30.00,10.0,Variable,6.9,-,N/A,,Clear,0,2013-03-11 23:56:00
2:56 PM,77.9,61.9,58,29.99,10.0,West,8.1,-,N/A,,Clear,270,2013-03-12 00:56:00
3:56 PM,77.9,61.9,58,29.98,10.0,West,5.8,-,N/A,,Clear,270,2013-03-12 01:56:00
4:56 PM,75.9,61.9,62,29.99,10.0,WNW,6.9,-,N/A,,Mostly Cloudy,300,2013-03-12 02:56:00
5:56 PM,72.9,63.0,71,30.00,10.0,WNW,5.8,-,N/A,,Clear,290,2013-03-12 03:56:00
6:56 PM,68.0,63.9,87,30.02,10.0,Calm,Calm,-,N/A,,Clear,0,2013-03-12 04:56:00
7:56 PM,64.9,61.9,90,30.04,10.0,ENE,4.6,-,N/A,,Clear,70,2013-03-12 05:56:00
8:56 PM,63.9,61.9,93,30.05,10.0,ENE,4.6,-,N/A,,Clear,60,2013-03-12 06:56:00
9:56 PM,63.9,61.9,93,30.07,10.0,Calm,Calm,-,N/A,,Clear,0,2013-03-12 07:56:00
10:56 PM,64.9,61.9,90,30.06,10.0,Calm,Calm,-,N/A,,Partly Cloudy,0,2013-03-12 08:56:00
11:56 PM,64.9,61.9,90,30.04,10.0,ENE,3.5,-,N/A,,Clear,70,2013-03-12 09:56:00